EW8549 Weather Reports


time (UTC)temp
C
wind
direction
speed
KPH
gust
KPH
rain 1hr
cm
rain 24hr
cm
rain mn
cm
humidity
%
barometer
mb
20260510093033 16 148 0.0 0.0 0.00 0.00 0.00 1 1012.0
20260510091532 16 148 0.0 0.0 0.00 0.00 0.00 1 1011.9
20260510090021 16 148 0.0 0.0 0.00 0.00 0.00 1 1011.8
20260510084519 16 148 0.0 0.0 0.00 0.00 0.00 1 1011.7
20260510083012 16 148 0.0 0.0 0.00 0.00 0.00 1 1011.6
20260510081507 16 148 0.0 0.0 0.00 0.00 0.00 1 1011.6
20260510080011 16 148 0.0 0.0 0.00 0.00 0.00 1 1011.3
20260510074559 16 148 0.0 0.0 0.00 0.00 0.00 1 1011.2
20260510073057 15 148 0.0 0.0 0.00 0.00 0.00 1 1011.0
20260510071550 15 148 0.0 0.0 0.00 0.00 0.00 1 1011.1
20260510070045 15 148 0.0 0.0 0.00 0.00 0.00 1 1011.1
20260510064542 15 148 0.0 0.0 0.00 0.00 0.00 1 1011.2
20260510063038 15 148 0.0 0.0 0.00 0.00 0.00 1 1011.1
20260510061535 16 148 0.0 0.0 0.00 0.00 0.00 1 1011.2
20260510060038 16 148 0.0 0.0 0.00 0.00 0.00 1 1011.3
20260510054534 16 148 0.0 0.0 0.00 0.00 0.00 1 1011.4
20260510053020 16 148 0.0 0.0 0.00 0.00 0.00 1 1011.5
20260510051515 16 148 0.0 0.0 0.00 0.00 0.00 1 1011.6
20260510050013 16 148 0.0 0.0 0.00 0.00 0.00 1 1011.5
20260510044506 17 148 0.0 0.0 0.00 0.00 0.00 1 1011.5
20260510043002 17 148 0.0 0.0 0.00 0.00 0.00 1 1011.6
20260510041557 17 148 0.0 0.0 0.00 0.00 0.00 1 1011.7
20260510040053 17 148 0.0 0.0 0.00 0.00 0.00 1 1011.7
20260510034548 17 148 0.0 0.0 0.00 0.00 0.00 1 1011.7
20260510033044 18 148 0.0 0.0 0.00 0.00 0.00 1 1011.8
20260510031540 18 148 0.0 0.0 0.00 0.00 0.00 1 1011.9
20260510030048 18 148 0.0 0.0 0.00 0.00 0.00 1 1011.8
20260510024530 18 148 0.0 0.0 0.00 0.00 0.00 1 1011.7
20260510023027 19 148 0.0 0.0 0.00 0.00 0.00 1 1011.6
20260510021521 19 148 0.0 0.0 0.00 0.00 0.00 1 1011.4
20260510020018 19 148 0.0 0.0 0.00 0.00 0.00 1 1011.1
20260510014513 19 148 0.0 0.0 0.00 0.00 0.00 1 1010.8
20260510013009 20 148 0.0 0.0 0.00 0.00 0.00 1 1010.5
20260510011508 21 148 0.0 0.0 0.00 0.00 0.00 1 1010.2
20260510010104 21 148 0.0 0.0 0.00 0.00 0.00 3 1009.8
20260510004557 23 148 0.0 0.0 0.00 0.00 0.00 25 1009.5
20260510003051 23 161 0.0 0.0 0.00 0.00 0.00 36 1009.3
20260510001547 25 167 0.0 0.0 0.00 0.00 0.00 47 1009.2
20260510000044 25 162 0.0 0.0 0.00 0.00 0.00 52 1009.0
20260509234542 25 184 0.0 0.0 0.00 0.00 0.00 50 1009.0
20260509233037 25 161 0.0 0.0 0.00 0.00 0.00 48 1008.8
20260509231532 24 155 0.0 0.0 0.00 0.00 0.00 45 1009.0
20260509230025 24 208 0.0 0.0 0.00 0.00 0.00 49 1008.8
20260509224520 25 214 0.0 0.0 0.00 0.00 0.00 53 1008.9
20260509223016 25 214 0.0 0.0 0.00 0.00 0.00 56 1008.7
20260509221512 25 144 0.0 0.0 0.00 0.00 0.00 55 1008.7
20260509220020 25 124 0.0 0.0 0.00 0.00 0.00 53 1008.5
20260509214504 25 2 0.0 0.0 0.00 0.00 0.00 59 1008.4
20260509213136 25 337 0.0 0.0 0.00 0.00 0.00 58 1008.3
20260509211555 25 337 0.0 0.0 0.00 0.00 0.00 60 1008.5
20260509204548 25 326 0.0 0.0 0.00 0.00 0.00 60 1008.6
20260509203044 25 269 0.0 0.0 0.00 0.00 0.00 60 1008.8
20260509201539 25 210 0.0 0.0 0.00 0.00 0.00 60 1009.0
20260509200035 25 266 0.0 0.0 0.00 0.00 0.00 60 1009.0
20260509194532 25 233 0.0 0.0 0.00 0.00 0.00 59 1009.1
20260509193027 25 285 0.0 0.0 0.00 0.00 0.00 59 1009.1
20260509191523 25 124 0.0 0.0 0.00 0.00 0.00 54 1009.3
20260509190019 24 287 0.0 0.0 0.00 0.00 0.00 51 1009.4
20260509184513 23 1 0.0 0.0 0.00 0.00 0.00 46 1009.5
20260509183011 23 341 0.0 3.2 0.00 0.00 0.00 47 1009.9
20260509181506 23 158 0.0 0.0 0.00 0.00 0.00 40 1010.1
20260509174555 22 124 0.0 11.3 0.00 0.00 0.00 26 1010.6
20260509173051 22 101 0.0 14.5 0.00 0.00 0.00 19 1010.6
20260509171549 22 139 3.2 12.9 0.00 0.00 0.00 11 1010.8
20260509170048 22 181 0.0 0.0 0.00 0.00 0.00 16 1010.8
20260509164542 21 264 0.0 16.1 0.00 0.00 0.00 2 1010.7
20260509163034 21 146 0.0 0.0 0.00 0.00 0.00 1 1010.7
20260509161533 20 189 0.0 0.0 0.00 0.00 0.00 1 1010.5
20260509160031 20 265 0.0 0.0 0.00 0.00 0.00 1 1010.6
20260509154518 20 245 0.0 0.0 0.00 0.00 0.00 1 1010.9
20260509153014 20 263 0.0 0.0 0.00 0.00 0.00 1 1010.8
20260509151509 20 270 0.0 0.0 0.00 0.00 0.00 1 1010.6
20260509150006 19 241 0.0 0.0 0.00 0.00 0.00 1 1010.6
20260509144502 18 116 0.0 0.0 0.00 0.03 0.00 1 1010.4
20260509143057 18 149 0.0 6.4 0.00 0.03 0.00 1 1010.4